ICE52 BIAR-BIRK

Flight info

Callsign ICE52
Flight time 0h 34m
Altitude 16000
Route EXINU
Aircraft DH8D/M-SDE2E3FGRY/H

Departure

Time 2026-05-09 18:30
Airport Akureyri International Airport (BIAR)

Arrival

Time 2026-05-09 19:04
Airport Reykjavík Domestic Airport (BIRK)
Time Latitude Longitude Altitude Speed Heading
2026-05-09 18:08 65.65485 -18.07494 30 ft 0 kts 356°
2026-05-09 18:25 65.65494 -18.07486 30 ft 0 kts 36°
2026-05-09 18:26 65.65496 -18.07483 30 ft 0 kts 43°
2026-05-09 18:26 65.65495 -18.07454 29 ft 3 kts 104°
2026-05-09 18:26 65.65490 -18.07385 28 ft 5 kts 88°
2026-05-09 18:26 65.65489 -18.07269 24 ft 9 kts 95°
2026-05-09 18:27 65.65447 -18.07162 22 ft 8 kts 173°
2026-05-09 18:27 65.65398 -18.07149 24 ft 5 kts 174°
2026-05-09 18:27 65.65335 -18.07133 26 ft 18 kts 174°
2026-05-09 18:27 65.65148 -18.07102 31 ft 34 kts 177°
2026-05-09 18:28 65.64889 -18.07062 34 ft 34 kts 176°
2026-05-09 18:28 65.64681 -18.07022 37 ft 25 kts 178°
2026-05-09 18:28 65.64619 -18.06995 38 ft 7 kts 54°
2026-05-09 18:28 65.64658 -18.07001 37 ft 3 kts 339°
2026-05-09 18:29 65.64664 -18.07005 37 ft 0 kts 349°
2026-05-09 18:29 65.64670 -18.07007 37 ft 5 kts 350°
2026-05-09 18:29 65.64793 -18.07032 36 ft 29 kts 356°
2026-05-09 18:30 65.65273 -18.07123 27 ft 111 kts 355°
2026-05-09 18:30 65.66239 -18.07305 53 ft 160 kts 356°
2026-05-09 18:30 65.67373 -18.07447 546 ft 169 kts 359°
2026-05-09 18:30 65.68569 -18.07424 1125 ft 177 kts
2026-05-09 18:31 65.69814 -18.07300 1661 ft 187 kts
2026-05-09 18:31 65.71124 -18.07237 2255 ft 193 kts
2026-05-09 18:31 65.72471 -18.07186 2890 ft 197 kts
2026-05-09 18:31 65.73824 -18.07415 3522 ft 198 kts 341°
2026-05-09 18:32 65.74838 -18.09558 4016 ft 201 kts 294°
2026-05-09 18:32 65.75099 -18.13002 4342 ft 217 kts 272°
2026-05-09 18:32 65.75131 -18.16658 4891 ft 222 kts 271°
2026-05-09 18:32 65.74988 -18.20371 5432 ft 226 kts 250°
2026-05-09 18:33 65.74095 -18.23448 5991 ft 228 kts 227°
2026-05-09 18:33 65.73016 -18.26250 6591 ft 230 kts 227°
2026-05-09 18:33 65.71918 -18.29122 7196 ft 232 kts 227°
2026-05-09 18:33 65.70830 -18.31959 7784 ft 234 kts 227°
2026-05-09 18:34 65.69725 -18.34845 8372 ft 237 kts 227°
2026-05-09 18:34 65.68594 -18.37798 8964 ft 239 kts 227°
2026-05-09 18:34 65.67468 -18.40735 9542 ft 241 kts 227°
2026-05-09 18:34 65.66323 -18.43666 10114 ft 243 kts 226°
2026-05-09 18:35 65.65121 -18.46531 10672 ft 245 kts 225°
2026-05-09 18:35 65.63910 -18.49392 11210 ft 247 kts 225°
2026-05-09 18:35 65.62680 -18.52297 11731 ft 249 kts 225°
2026-05-09 18:35 65.61439 -18.55232 12243 ft 251 kts 225°
2026-05-09 18:36 65.60188 -18.58189 12737 ft 253 kts 225°
2026-05-09 18:36 65.58946 -18.61126 13208 ft 255 kts 225°
2026-05-09 18:36 65.57682 -18.64114 13668 ft 256 kts 225°
2026-05-09 18:36 65.56403 -18.67133 14116 ft 258 kts 224°
2026-05-09 18:37 65.55119 -18.70162 14549 ft 260 kts 224°
2026-05-09 18:37 65.53825 -18.73210 14973 ft 262 kts 224°
2026-05-09 18:37 65.52525 -18.76270 15387 ft 263 kts 224°
2026-05-09 18:37 65.51217 -18.79346 15781 ft 266 kts 224°
2026-05-09 18:38 65.49882 -18.82482 15945 ft 277 kts 224°
2026-05-09 18:38 65.48469 -18.85799 15996 ft 291 kts 224°
2026-05-09 18:38 65.46989 -18.89267 16009 ft 304 kts 224°
2026-05-09 18:40 65.36820 -19.18829 16002 ft 344 kts 233°
2026-05-09 18:40 65.35366 -19.23383 16002 ft 345 kts 233°
2026-05-09 18:40 65.33913 -19.27933 16001 ft 347 kts 233°
2026-05-09 18:41 65.32449 -19.32509 16001 ft 347 kts 233°
2026-05-09 18:41 65.30988 -19.37067 15997 ft 344 kts 233°
2026-05-09 18:41 65.29537 -19.41572 15997 ft 341 kts 232°
2026-05-09 18:41 65.28108 -19.45976 15997 ft 338 kts 232°
2026-05-09 18:42 65.26670 -19.50397 15998 ft 336 kts 232°
2026-05-09 18:42 65.25256 -19.54742 15998 ft 334 kts 232°
2026-05-09 18:42 65.23831 -19.59109 15999 ft 333 kts 232°
2026-05-09 18:42 65.22416 -19.63446 15999 ft 332 kts 232°
2026-05-09 18:43 65.20995 -19.67791 15999 ft 331 kts 232°
2026-05-09 18:43 65.19601 -19.72049 15999 ft 330 kts 232°
2026-05-09 18:43 65.18190 -19.76352 16000 ft 330 kts 232°
2026-05-09 18:43 65.16778 -19.80649 16000 ft 329 kts 232°
2026-05-09 18:44 65.15368 -19.84932 16000 ft 329 kts 232°
2026-05-09 18:44 65.13977 -19.89149 15999 ft 327 kts 232°
2026-05-09 18:44 65.12582 -19.93364 15997 ft 323 kts 232°
2026-05-09 18:44 65.11203 -19.97523 15997 ft 320 kts 232°
2026-05-09 18:45 65.10294 -20.00262 15997 ft 318 kts 232°
2026-05-09 18:45 65.08474 -20.05736 15998 ft 315 kts 232°
2026-05-09 18:45 65.07125 -20.09788 15998 ft 314 kts 232°
2026-05-09 18:45 65.05782 -20.13812 15998 ft 312 kts 232°
2026-05-09 18:46 65.04441 -20.17828 15999 ft 311 kts 232°
2026-05-09 18:46 65.03097 -20.21843 15999 ft 310 kts 232°
2026-05-09 18:46 65.01769 -20.25807 15999 ft 309 kts 232°
2026-05-09 18:46 65.00433 -20.29783 15999 ft 309 kts 232°
2026-05-09 18:47 64.99095 -20.33761 16000 ft 309 kts 232°
2026-05-09 18:47 64.97759 -20.37728 16000 ft 309 kts 232°
2026-05-09 18:47 64.96437 -20.41645 16000 ft 310 kts 232°
2026-05-09 18:47 64.95093 -20.45621 16000 ft 310 kts 232°
2026-05-09 18:48 64.93747 -20.49594 16000 ft 310 kts 232°
2026-05-09 18:48 64.92415 -20.53517 16000 ft 310 kts 232°
2026-05-09 18:48 64.91061 -20.57499 16000 ft 310 kts 232°
2026-05-09 18:48 64.89709 -20.61470 16000 ft 310 kts 232°
2026-05-09 18:49 64.88354 -20.65440 16000 ft 310 kts 231°
2026-05-09 18:49 64.87009 -20.69370 16000 ft 310 kts 231°
2026-05-09 18:49 64.85672 -20.73276 16000 ft 310 kts 231°
2026-05-09 18:49 64.84317 -20.77224 15928 ft 308 kts 231°
2026-05-09 18:50 64.82974 -20.81123 15613 ft 307 kts 231°
2026-05-09 18:50 64.81657 -20.84944 15401 ft 302 kts 231°
2026-05-09 18:50 64.80335 -20.88765 15194 ft 298 kts 231°
2026-05-09 18:50 64.79036 -20.92523 14888 ft 298 kts 231°
2026-05-09 18:51 64.77746 -20.96250 14524 ft 300 kts 231°
2026-05-09 18:51 64.76429 -21.00050 14152 ft 301 kts 231°
2026-05-09 18:51 64.75098 -21.03884 13702 ft 305 kts 231°
2026-05-09 18:51 64.73769 -21.07706 13172 ft 311 kts 230°
2026-05-09 18:52 64.72300 -21.11446 12629 ft 315 kts 225°
2026-05-09 18:52 64.70744 -21.14999 12393 ft 306 kts 224°
2026-05-09 18:52 64.69269 -21.18328 12437 ft 292 kts 224°
2026-05-09 18:52 64.67803 -21.21634 11890 ft 293 kts 224°
2026-05-09 18:53 64.66349 -21.24916 11291 ft 291 kts 224°
2026-05-09 18:53 64.64916 -21.28157 10630 ft 291 kts 224°
2026-05-09 18:53 64.63486 -21.31392 10189 ft 283 kts 224°
2026-05-09 18:53 64.62096 -21.34529 9839 ft 273 kts 224°
2026-05-09 18:54 64.60758 -21.37543 9529 ft 263 kts 224°
2026-05-09 18:54 64.59484 -21.40414 9242 ft 254 kts 224°
2026-05-09 18:54 64.58233 -21.43231 8965 ft 245 kts 224°
2026-05-09 18:54 64.56997 -21.46026 8711 ft 254 kts 225°
2026-05-09 18:55 64.55718 -21.48928 8443 ft 266 kts 224°
2026-05-09 18:55 64.54363 -21.51979 8209 ft 273 kts 224°
2026-05-09 18:55 64.52992 -21.55085 8059 ft 273 kts 226°
2026-05-09 18:55 64.51703 -21.58219 7790 ft 271 kts 227°
2026-05-09 18:56 64.50429 -21.61357 7332 ft 265 kts 227°
2026-05-09 18:56 64.49181 -21.64432 6851 ft 260 kts 227°
2026-05-09 18:56 64.47957 -21.67447 6371 ft 255 kts 226°
2026-05-09 18:56 64.46750 -21.70418 5891 ft 251 kts 226°
2026-05-09 18:57 64.45571 -21.73293 5416 ft 248 kts 225°
2026-05-09 18:57 64.44312 -21.76003 4936 ft 245 kts 221°
2026-05-09 18:57 64.43059 -21.78572 4462 ft 242 kts 221°
2026-05-09 18:57 64.41810 -21.81139 4026 ft 237 kts 221°
2026-05-09 18:58 64.40595 -21.83614 3703 ft 228 kts 220°
2026-05-09 18:58 64.39420 -21.85915 3393 ft 220 kts 220°
2026-05-09 18:58 64.38291 -21.88152 3079 ft 211 kts 220°
2026-05-09 18:58 64.37200 -21.90313 2765 ft 201 kts 220°
2026-05-09 18:59 64.36182 -21.92330 2599 ft 183 kts 220°
2026-05-09 18:59 64.35211 -21.94268 2594 ft 194 kts 221°
2026-05-09 18:59 64.34200 -21.96253 2522 ft 181 kts 216°
2026-05-09 18:59 64.33092 -21.97384 2538 ft 181 kts 193°
2026-05-09 19:00 64.31719 -21.97758 2567 ft 219 kts 182°
2026-05-09 19:00 64.29034 -21.97112 2484 ft 168 kts 169°
2026-05-09 19:00 64.27917 -21.96692 2501 ft 161 kts 172°
2026-05-09 19:01 64.26789 -21.96405 2517 ft 168 kts 175°
2026-05-09 19:01 64.25597 -21.96176 2520 ft 172 kts 175°
2026-05-09 19:01 64.24423 -21.95963 2501 ft 164 kts 175°
2026-05-09 19:01 64.23360 -21.95742 2251 ft 144 kts 174°
2026-05-09 19:02 64.22422 -21.95534 1851 ft 136 kts 174°
2026-05-09 19:02 64.21458 -21.95343 1550 ft 140 kts 176°
2026-05-09 19:02 64.20458 -21.95188 1507 ft 148 kts 175°
2026-05-09 19:02 64.19457 -21.94976 1352 ft 143 kts 175°
2026-05-09 19:03 64.18499 -21.94803 1132 ft 135 kts 175°
2026-05-09 19:03 64.17575 -21.94638 960 ft 139 kts 176°
2026-05-09 19:03 64.16596 -21.94458 757 ft 141 kts 173°
2026-05-09 19:03 64.15650 -21.94233 596 ft 137 kts 175°
2026-05-09 19:04 64.14707 -21.94089 318 ft 137 kts 175°
2026-05-09 19:04 64.13773 -21.93911 120 ft 134 kts 176°
2026-05-09 19:04 64.12973 -21.93771 31 ft 78 kts 174°
2026-05-09 19:04 64.12628 -21.93706 21 ft 32 kts 175°
2026-05-09 19:05 64.12484 -21.93671 16 ft 14 kts 167°
2026-05-09 19:05 64.12441 -21.93545 18 ft 6 kts 83°
2026-05-09 19:05 64.12450 -21.93450 20 ft 6 kts 52°
2026-05-09 19:05 64.12485 -21.93427 22 ft 5 kts 359°
2026-05-09 19:06 64.12539 -21.93439 24 ft 12 kts 355°
2026-05-09 19:06 64.12613 -21.93453 26 ft 8 kts 355°
2026-05-09 19:06 64.12662 -21.93462 27 ft 5 kts 355°
2026-05-09 19:06 64.12695 -21.93468 28 ft 5 kts 355°
2026-05-09 19:07 64.12740 -21.93476 30 ft 11 kts 355°
2026-05-09 19:07 64.12837 -21.93494 33 ft 8 kts 355°
2026-05-09 19:07 64.12907 -21.93512 36 ft 7 kts 339°
2026-05-09 19:07 64.12947 -21.93567 36 ft 5 kts 352°
2026-05-09 19:08 64.12976 -21.93568 37 ft 4 kts
2026-05-09 19:08 64.13020 -21.93563 39 ft 6 kts
2026-05-09 19:08 64.13050 -21.93558 40 ft 0 kts
2026-05-09 19:08 64.13052 -21.93558 41 ft 3 kts 358°
2026-05-09 19:09 64.13088 -21.93613 41 ft 7 kts 311°
2026-05-09 19:09 64.13121 -21.93705 40 ft 8 kts 300°
2026-05-09 19:09 64.13150 -21.93847 35 ft 10 kts 282°
2026-05-09 19:09 64.13149 -21.93976 33 ft 7 kts 263°
2026-05-09 19:10 64.13142 -21.94119 30 ft 9 kts 263°
2026-05-09 19:10 64.13136 -21.94221 28 ft 6 kts 263°
2026-05-09 19:10 64.13133 -21.94290 26 ft 3 kts 263°
2026-05-09 19:10 64.13129 -21.94360 25 ft 5 kts 263°
2026-05-09 19:11 64.13136 -21.94437 24 ft 5 kts 320°
2026-05-09 19:11 64.13165 -21.94444 24 ft 2 kts 34°
2026-05-09 19:11 64.13173 -21.94412 25 ft 1 kts 81°
2026-05-09 19:11 64.13174 -21.94380 26 ft 2 kts 82°
2026-05-09 19:12 64.13175 -21.94368 26 ft 0 kts 83°
2026-05-09 19:14 64.13175 -21.94367 26 ft 0 kts 83°